When you browse on this site, cookies collect data to enhance your experience and personalize the content and advertising you see.
Visit our Privacy Policy to learn more. By continuing to use the site, you agree to this use of cookies and data.
  • In Deutschland
  • Länderverzeichnis
  • Für 7 Tage
  • Wassertemperatur
  • Satellitenkarten
  • Wetterkarte
  • Widgets
  • user-avatar
    Anmelden

    Stündliche Wetter Losie

    Heute, 27 Mai, Montag

    Zeit Temperatur Niederschläge Wind Luftdruck Luftfeuchtigkeit
    00:00 +13°C° 0 mm 3 m/S 750 mmHg 81%
    01:00 +13°C° 0 mm 3 m/S 750 mmHg 83%
    02:00 +13°C° 0 mm 3 m/S 750 mmHg 85%
    03:00 +13°C° 0 mm 3 m/S 749 mmHg 87%
    04:00 +13°C° 0 mm 3 m/S 749 mmHg 89%
    05:00 +15°C° 0 mm 4 m/S 749 mmHg 84%
    06:00 +17°C° 0 mm 4 m/S 749 mmHg 78%
    07:00 +19°C° 0 mm 4 m/S 749 mmHg 73%
    08:00 +21°C° 0.1 mm 5 m/S 749 mmHg 67%
    09:00 +22°C° 0.1 mm 5 m/S 749 mmHg 61%
    10:00 +25°C° 0.1 mm 5 m/S 749 mmHg 54%
    11:00 +25°C° 0 mm 5 m/S 748 mmHg 53%
    12:00 +26°C° 0 mm 5 m/S 748 mmHg 51%
    13:00 +27°C° 0 mm 5 m/S 748 mmHg 49%
    14:00 +26°C° 0 mm 5 m/S 748 mmHg 51%
    15:00 +26°C° 0 mm 5 m/S 748 mmHg 52%
    16:00 +26°C° 0 mm 4 m/S 748 mmHg 54%
    17:00 +25°C° 0.1 mm 4 m/S 747 mmHg 61%
    18:00 +22°C° 0.1 mm 3 m/S 747 mmHg 67%
    19:00 +21°C° 0.1 mm 3 m/S 747 mmHg 74%
    20:00 +20°C° 0 mm 3 m/S 747 mmHg 77%
    21:00 +19°C° 0 mm 2 m/S 747 mmHg 79%
    22:00 +18°C° 0 mm 2 m/S 747 mmHg 82%
    23:00 +18°C° 0.1 mm 2 m/S 747 mmHg 84%

    Morgen, 28 Mai, Dienstag

    Zeit Temperatur Niederschläge Wind Luftdruck Luftfeuchtigkeit
    00:00 +18°C° 0.1 mm 2 m/S 747 mmHg 87%
    01:00 +17°C° 0.1 mm 2 m/S 746 mmHg 90%
    02:00 +17°C° 0.5 mm 2 m/S 746 mmHg 91%
    03:00 +17°C° 0.5 mm 2 m/S 746 mmHg 93%
    04:00 +17°C° 0.5 mm 3 m/S 745 mmHg 95%
    05:00 +17°C° 0.7 mm 3 m/S 745 mmHg 93%
    06:00 +18°C° 0.7 mm 3 m/S 745 mmHg 90%
    07:00 +19°C° 0.7 mm 3 m/S 744 mmHg 88%
    08:00 +20°C° 0.2 mm 3 m/S 744 mmHg 84%
    09:00 +21°C° 0.2 mm 3 m/S 744 mmHg 79%
    10:00 +22°C° 0.2 mm 4 m/S 744 mmHg 75%
    11:00 +22°C° 0.5 mm 4 m/S 744 mmHg 72%
    12:00 +23°C° 0.5 mm 4 m/S 744 mmHg 70%
    13:00 +25°C° 0.5 mm 5 m/S 744 mmHg 68%
    14:00 +23°C° 1.2 mm 4 m/S 744 mmHg 72%
    15:00 +22°C° 1.2 mm 3 m/S 744 mmHg 76%
    16:00 +21°C° 1.2 mm 3 m/S 744 mmHg 80%
    17:00 +20°C° 1.1 mm 2 m/S 744 mmHg 82%
    18:00 +20°C° 1.1 mm 2 m/S 745 mmHg 85%
    19:00 +19°C° 1.1 mm 2 m/S 745 mmHg 87%
    20:00 +18°C° 0.8 mm 3 m/S 745 mmHg 89%
    21:00 +15°C° 0.8 mm 4 m/S 746 mmHg 91%
    22:00 +14°C° 0.8 mm 5 m/S 746 mmHg 94%
    23:00 +13°C° 0.1 mm 5 m/S 746 mmHg 93%

    übermorgen, 29 Mai, Mittwoch

    Zeit Temperatur Niederschläge Wind Luftdruck Luftfeuchtigkeit
    00:00 +13°C° 0.1 mm 5 m/S 747 mmHg 92%
    01:00 +12°C° 0.1 mm 5 m/S 747 mmHg 92%
    02:00 +10°C° 0.1 mm 5 m/S 748 mmHg 91%
    03:00 +9°C° 0.1 mm 5 m/S 748 mmHg 89%
    04:00 +9°C° 0.1 mm 5 m/S 749 mmHg 88%
    05:00 +9°C° 0.1 mm 5 m/S 749 mmHg 87%
    06:00 +9°C° 0.1 mm 5 m/S 750 mmHg 86%
    07:00 +10°C° 0.1 mm 4 m/S 751 mmHg 85%
    08:00 +10°C° 0 mm 4 m/S 751 mmHg 83%
    09:00 +11°C° 0 mm 4 m/S 752 mmHg 80%
    10:00 +12°C° 0 mm 4 m/S 752 mmHg 78%
    11:00 +12°C° 0 mm 4 m/S 753 mmHg 74%
    12:00 +13°C° 0 mm 3 m/S 753 mmHg 70%
    13:00 +14°C° 0 mm 3 m/S 753 mmHg 67%
    14:00 +14°C° 0 mm 3 m/S 753 mmHg 67%
    15:00 +16°C° 0 mm 3 m/S 753 mmHg 68%
    16:00 +16°C° 0 mm 3 m/S 753 mmHg 68%
    17:00 +16°C° 0 mm 3 m/S 754 mmHg 69%
    18:00 +14°C° 0 mm 3 m/S 754 mmHg 70%
    19:00 +14°C° 0 mm 4 m/S 754 mmHg 71%
    20:00 +13°C° 0 mm 4 m/S 754 mmHg 71%
    21:00 +11°C° 0 mm 3 m/S 755 mmHg 72%
    22:00 +10°C° 0 mm 3 m/S 755 mmHg 73%
    23:00 +9°C° 0 mm 3 m/S 755 mmHg 75%

    30 Mai, Donnerstag

    Zeit Temperatur Niederschläge Wind Luftdruck Luftfeuchtigkeit
    00:00 +9°C° 0 mm 3 m/S 755 mmHg 76%
    01:00 +8°C° 0 mm 3 m/S 756 mmHg 78%
    02:00 +7°C° 0 mm 3 m/S 756 mmHg 78%
    03:00 +7°C° 0 mm 3 m/S 756 mmHg 78%
    04:00 +5°C° 0 mm 3 m/S 756 mmHg 79%
    05:00 +8°C° 0 mm 2 m/S 756 mmHg 75%
    06:00 +9°C° 0 mm 2 m/S 756 mmHg 71%
    07:00 +10°C° 0 mm 2 m/S 756 mmHg 67%
    08:00 +12°C° 0.1 mm 2 m/S 756 mmHg 68%
    09:00 +12°C° 0.1 mm 2 m/S 756 mmHg 70%
    10:00 +13°C° 0.1 mm 2 m/S 756 mmHg 71%
    11:00 +13°C° 0 mm 2 m/S 756 mmHg 69%
    12:00 +14°C° 0 mm 2 m/S 756 mmHg 66%
    13:00 +15°C° 0 mm 2 m/S 756 mmHg 63%
    14:00 +16°C° 0 mm 2 m/S 756 mmHg 60%
    15:00 +17°C° 0 mm 2 m/S 756 mmHg 56%
    16:00 +18°C° 0 mm 1 m/S 755 mmHg 53%
    17:00 +18°C° 0 mm 1 m/S 755 mmHg 57%
    18:00 +16°C° 0 mm 1 m/S 755 mmHg 61%
    19:00 +15°C° 0 mm 1 m/S 755 mmHg 65%
    20:00 +14°C° 0 mm 1 m/S 755 mmHg 67%
    21:00 +13°C° 0 mm 1 m/S 755 mmHg 68%
    22:00 +12°C° 0 mm 1 m/S 755 mmHg 69%
    23:00 +11°C° 0 mm 1 m/S 755 mmHg 71%

    31 Mai, Freitag

    Zeit Temperatur Niederschläge Wind Luftdruck Luftfeuchtigkeit
    00:00 +11°C° 0 mm 1 m/S 755 mmHg 72%
    01:00 +10°C° 0 mm 1 m/S 755 mmHg 74%
    02:00 +10°C° 0 mm 1 m/S 754 mmHg 76%
    03:00 +10°C° 0 mm 1 m/S 754 mmHg 78%
    04:00 +10°C° 0 mm 1 m/S 754 mmHg 80%
    05:00 +12°C° 0 mm 1 m/S 753 mmHg 76%
    06:00 +13°C° 0 mm 2 m/S 753 mmHg 73%
    07:00 +15°C° 0 mm 2 m/S 753 mmHg 70%
    08:00 +17°C° 0 mm 3 m/S 752 mmHg 64%
    09:00 +18°C° 0 mm 3 m/S 752 mmHg 59%
    10:00 +20°C° 0 mm 3 m/S 751 mmHg 53%
    11:00 +21°C° 0 mm 3 m/S 751 mmHg 51%
    12:00 +22°C° 0 mm 3 m/S 751 mmHg 50%
    13:00 +24°C° 0 mm 3 m/S 750 mmHg 48%
    14:00 +21°C° 0.6 mm 5 m/S 751 mmHg 58%
    15:00 +20°C° 0.6 mm 7 m/S 751 mmHg 68%
    16:00 +17°C° 0.6 mm 8 m/S 752 mmHg 79%
    17:00 +13°C° 0.1 mm 8 m/S 753 mmHg 80%
    18:00 +11°C° 0.1 mm 8 m/S 754 mmHg 81%
    19:00 +8°C° 0.1 mm 7 m/S 755 mmHg 82%
    20:00 +8°C° 0 mm 6 m/S 755 mmHg 80%
    21:00 +8°C° 0 mm 5 m/S 756 mmHg 77%
    22:00 +8°C° 0 mm 5 m/S 757 mmHg 74%
    23:00 +8°C° 0 mm 5 m/S 757 mmHg 73%

    1 Juni, Samstag

    Zeit Temperatur Niederschläge Wind Luftdruck Luftfeuchtigkeit
    00:00 +7°C° 0 mm 5 m/S 758 mmHg 72%
    01:00 +7°C° 0 mm 5 m/S 758 mmHg 71%
    02:00 +6°C° 0 mm 5 m/S 759 mmHg 72%
    03:00 +6°C° 0 mm 4 m/S 759 mmHg 72%
    04:00 +5°C° 0 mm 4 m/S 759 mmHg 72%
    05:00 +6°C° 0 mm 4 m/S 760 mmHg 69%
    06:00 +8°C° 0 mm 4 m/S 760 mmHg 66%
    07:00 +10°C° 0 mm 4 m/S 760 mmHg 63%
    08:00 +10°C° 0 mm 5 m/S 760 mmHg 57%
    09:00 +13°C° 0 mm 5 m/S 761 mmHg 52%
    10:00 +14°C° 0 mm 5 m/S 761 mmHg 47%
    11:00 +15°C° 0 mm 5 m/S 761 mmHg 46%
    12:00 +16°C° 0 mm 5 m/S 761 mmHg 46%
    13:00 +16°C° 0 mm 5 m/S 761 mmHg 45%
    14:00 +16°C° 0 mm 5 m/S 761 mmHg 47%
    15:00 +16°C° 0 mm 5 m/S 761 mmHg 49%
    16:00 +16°C° 0 mm 5 m/S 761 mmHg 50%
    17:00 +15°C° 0 mm 4 m/S 761 mmHg 55%
    18:00 +14°C° 0 mm 4 m/S 762 mmHg 59%
    19:00 +13°C° 0 mm 3 m/S 762 mmHg 64%
    20:00 +11°C° 0 mm 3 m/S 762 mmHg 66%
    21:00 +10°C° 0 mm 3 m/S 763 mmHg 69%
    22:00 +9°C° 0 mm 3 m/S 763 mmHg 72%
    23:00 +8°C° 0 mm 3 m/S 763 mmHg 74%
    Mehr zeigen